S-NET A (43188 NORAD) Tracking and Keplerian Element Data

This shows tracking and keplerian element data for the satellite.

Feedback or suggestion? Click here.




ElementValue
Catalog43188
NameS-NET A
Epoch Orbit6572
Epoch Day106.77817712
Epoch Year2019
RAAN16.1394
Inclination97.7138
Eccentricity0.0009989
Argument of Perigee209.3456
Mean Anonmoly150.7206
Mean Motion14.9661619
Decay Rate7.5E-07
L11 43188U 18014J 19106.77817712 .00000075 00000-0 11701-4 0 9991
L22 43188 97.7138 16.1394 0009989 209.3456 150.7206 14.96616190 65723

Live tracking and technical data element details for S-NET A (NORAD 43188). S-NET A can be tracked NOW for your location showing map with azimuth and elevation plus other details from your city location.

Track the satellite on the map from your city or location and see movement details for azimuth, elevation, latitude, longitude, range, height, and movement on the map or in text.







IsCatalogInMostPopularTable: catalog: 43188, numindb: 217
Update: records affected: 1



GetName: 43188 S-NET A

Hit Count: updated at: Sat, 20 Apr 2019 00:25:30 GMT